Temperature
9 7 6 7 7 9 9 9 9 9 9 9 8 8 9 10 10 10 10 10 11 11 11 10 10 10 9 9 9 9 9 9 9 8 8 8 8 8 8 8 8 8 8 8
7 7 8 8 8 9 9 9 9 9 9 9 8 8 9 9 9 10 10 10 10 10 10 10 10 9 9 9 9 9 9 9 8 8 8 8 7 7 7 8 8 8 8 8
7 8 9 9 9 9 9 8 9 9 8 9 8 8 9 9 9 10 10 10 10 10 10 9 9 9 9 9 9 8 8 8 8 8 7 7 7 7 7 7 7 7 7 7
7 8 9 9 9 9 8 9 9 8 7 7 7 7 8 9 8 8 9 9 9 9 9 9 9 8 8 8 8 8 8 8 8 7 7 7 7 7 7 7 7 7 7 7
8 8 9 9 9 9 8 8 8 8 7 6 6 6 7 8 8 8 7 9 9 9 9 9 9 8 8 8 8 8 8 8 7 7 7 7 7 6 6 6 7 7 7 7
8 8 9 8 8 8 8 7 7 5 5 6 7 6 7 6 8 8 7 8 9 9 9 9 8 8 8 8 8 8 8 7 7 7 7 7 6 6 6 6 6 6 6 6
7 8 8 8 7 8 7 6 6 6 5 6 7 6 7 8 8 8 8 8 9 9 9 8 8 8 8 8 8 7 7 7 7 7 7 6 6 6 6 6 6 6 6 6
6 7 7 7 7 7 6 6 6 8 7 6 7 6 7 8 8 9 9 9 9 8 8 8 8 8 8 8 8 7 7 7 7 7 6 6 6 6 6 6 6 6 6 6
6 7 7 7 7 7 6 5 6 5 6 6 6 6 7 8 8 7 8 8 8 8 8 8 8 8 8 7 7 7 7 7 7 6 6 6 6 6 5 5 6 6 6 6
6 6 7 7 7 7 7 5 4 5 6 7 7 6 7 8 7 7 6 7 8 8 8 8 8 8 7 7 7 7 7 7 7 6 6 6 6 6 5 6 6 6 5 6
6 5 5 6 6 6 6 6 5 4 4 6 6 7 8 7 7 7 6 7 8 8 8 8 8 8 7 7 7 7 7 7 6 6 6 6 6 6 5 5 5 5 5 5
5 4 4 5 6 6 6 6 5 5 4 4 5 6 8 7 7 7 7 7 8 8 8 8 7 7 7 7 7 7 7 7 6 6 6 5 5 5 5 5 5 5 5 5
5 4 4 6 5 5 5 5 5 4 3 3 4 6 8 7 7 7 7 7 8 8 7 7 7 7 7 7 7 7 7 6 6 6 5 5 5 5 5 5 5 5 5 5
5 4 5 7 6 4 4 4 4 4 4 3 4 6 7 7 6 6 7 7 7 8 7 7 7 7 7 7 7 7 7 6 6 6 5 5 5 5 5 5 5 5 5 5
5 4 4 5 5 4 5 5 4 4 4 4 5 5 7 7 6 6 7 7 7 7 7 7 7 7 7 7 7 7 6 6 6 5 5 5 5 5 5 4 4 4 4 4
3 3 4 4 5 5 5 5 5 5 5 4 5 5 6 7 7 6 6 6 6 7 7 7 7 7 7 7 6 6 6 6 5 5 5 5 5 4 4 4 4 4 4 4
2 3 3 4 4 5 4 5 5 4 4 5 5 6 6 5 5 6 6 6 6 6 6 6 7 7 7 6 6 6 6 6 5 5 5 5 4 4 4 4 4 4 4 4
2 2 2 3 4 4 6 6 6 5 5 5 5 5 5 6 6 7 7 6 6 6 6 6 6 6 6 6 6 6 6 5 5 5 5 4 4 4 4 4 4 4 4 3
3 2 2 2 3 4 5 5 5 5 5 5 5 5 6 6 6 6 7 7 6 6 6 6 6 6 6 6 6 6 5 5 5 4 4 4 4 4 4 3 3 3 3 3
2 2 2 2 3 5 6 6 5 5 5 5 5 5 5 4 3 4 6 7 7 6 6 6 6 6 6 5 5 5 5 4 4 4 4 4 4 3 3 3 3 3 3 2
2 2 2 2 3 4 5 5 5 5 6 6 6 6 5 4 5 6 6 6 6 6 6 6 5 5 5 5 4 4 4 4 4 3 3 3 3 3 3 3 2 2 2 2
2 2 2 2 3 4 4 4 4 5 6 6 6 6 6 6 6 6 6 6 6 5 5 5 5 4 4 4 4 4 3 3 3 3 3 3 3 3 2 2 2 2 2 1
1 2 2 2 4 4 4 4 5 6 6 6 6 6 6 5 5 5 5 5 5 5 5 4 4 4 4 3 3 3 3 3 3 3 2 2 2 2 2 2 2 1 1 1
1 1 1 1 2 3 4 5 5 5 5 5 5 5 5 5 5 5 5 5 4 4 4 4 4 3 3 3 3 3 2 2 2 2 2 2 1 1 1 1 1 1 1 0
1 0 0 1 1 2 4 4 5 4 4 4 5 5 4 5 4 4 4 4 4 4 3 3 3 3 3 2 2 2 2 2 2 2 1 1 1 1 1 1 0 0 0 -0
0 0 1 1 2 2 3 4 4 4 4 4 4 4 4 4 4 4 3 3 3 3 3 3 3 2 2 2 2 2 1 1 1 1 1 0 0 0 0 -0 -0 -0 -0 -1
Wind_Speed
3 3 5 9 9 5 4 4 5 5 3 3 8 12 13 7 6 8 8 7 7 8 7 5 5 4 3 3 3 4 4 4 3 2 2 3 4 4 4 4 6 7 7 7
3 5 8 5 5 4 4 4 4 5 2 3 7 12 11 8 7 8 8 8 7 6 4 4 4 3 4 4 4 4 4 4 4 4 4 4 4 4 5 4 5 7 7 7
8 5 5 5 5 5 5 6 5 4 4 3 4 8 6 4 4 4 5 5 5 6 6 5 5 5 5 5 5 5 5 5 5 4 3 3 3 3 3 4 4 5 6 7
5 5 4 4 5 6 5 4 4 2 1 4 0 4 7 3 3 4 5 5 5 6 5 6 5 6 6 6 5 5 5 5 5 4 3 4 4 5 5 5 5 5 6 6
4 4 4 5 5 6 5 2 1 1 2 3 2 3 9 2 4 6 6 6 6 6 6 6 6 6 6 5 4 4 4 5 4 4 4 4 5 5 4 4 5 6 5 5
3 2 3 4 1 4 4 3 4 4 3 3 5 5 7 5 6 6 6 6 6 5 5 5 5 4 4 4 3 4 4 5 5 4 4 4 5 5 5 5 5 4 4 4
2 3 2 3 3 2 4 4 3 3 2 6 3 4 9 7 6 6 7 6 5 5 4 4 4 4 4 4 4 4 4 5 5 4 4 5 5 5 5 6 5 5 4 4
5 5 5 4 5 5 5 6 6 5 5 5 2 7 8 5 4 4 4 4 4 4 4 5 5 5 5 5 5 5 4 5 5 4 5 5 5 4 4 5 5 5 4 4
8 5 1 3 3 7 6 4 5 5 1 3 6 6 7 2 3 2 2 2 4 5 5 5 5 4 4 5 5 5 5 5 5 5 5 5 5 5 5 5 5 4 4 4
7 4 2 2 3 1 4 6 5 4 4 4 6 6 5 5 5 4 3 4 5 5 5 5 5 4 4 5 5 4 4 4 4 5 4 4 5 5 4 4 3 4 4 4
5 5 1 1 6 8 5 4 4 4 4 5 4 7 6 6 5 5 6 5 5 5 5 5 4 4 4 4 4 4 3 3 3 4 4 4 4 3 3 3 3 3 3 3
5 5 3 5 4 4 6 7 7 5 5 4 4 8 5 4 4 3 4 5 5 5 5 4 4 3 3 4 4 4 4 3 4 4 3 3 3 3 2 2 3 2 2 2
7 6 4 1 2 1 4 5 5 4 4 5 5 8 4 3 2 3 4 4 4 4 3 3 3 3 4 4 4 4 4 3 3 3 3 3 2 2 2 2 2 2 1 2
5 4 6 9 6 6 5 6 7 6 5 6 9 10 8 6 4 5 4 4 4 4 3 3 3 4 4 4 4 4 4 3 3 2 2 2 2 2 2 2 2 1 1 1
4 4 4 3 2 4 6 8 10 10 10 9 9 10 12 8 6 5 4 4 3 4 4 4 4 4 4 4 4 3 3 2 2 2 2 2 2 1 1 1 1 1 0 0
3 4 2 2 3 4 6 9 12 12 11 11 10 12 10 6 3 4 4 3 4 4 5 4 4 4 4 4 4 3 2 2 1 1 1 1 1 1 1 1 1 1 1 0
4 5 4 3 2 0 8 12 13 8 9 10 14 13 5 4 5 6 5 4 4 5 5 5 5 5 4 4 4 3 2 1 1 1 2 1 1 2 2 1 1 1 1 1
6 5 4 3 3 8 8 5 10 11 10 11 9 8 7 8 7 5 5 4 4 4 4 4 4 4 3 3 2 1 1 2 2 2 3 2 1 2 2 2 2 2 2 1
7 6 4 4 5 7 7 3 6 8 9 11 12 11 8 4 1 4 5 4 5 4 4 3 3 2 2 1 2 2 3 3 3 3 3 2 1 1 2 2 2 2 2 2
4 5 4 4 5 8 6 3 3 4 6 7 10 10 8 3 2 7 5 3 3 2 1 1 1 2 2 2 2 3 3 3 2 2 2 2 2 1 1 2 2 2 2 2
4 5 8 6 6 8 6 2 5 5 7 3 6 7 6 7 8 5 2 2 2 1 0 1 2 2 1 2 2 3 3 2 2 2 3 3 3 2 1 2 2 1 2 2
7 6 6 5 6 8 2 4 6 6 2 1 2 4 5 5 3 2 2 1 1 0 1 1 2 1 2 2 3 2 2 2 2 3 3 3 3 3 3 2 2 2 2 2
6 6 4 6 6 3 2 3 4 1 1 1 0 1 3 2 2 2 2 1 1 0 0 1 1 1 2 1 2 1 2 2 3 3 3 3 3 3 3 2 2 2 2 1
4 2 2 5 6 5 6 4 3 2 1 1 1 0 1 2 2 1 1 1 0 1 0 1 1 1 1 1 1 1 1 1 2 2 2 3 3 3 3 2 2 2 2 2
5 5 4 6 6 5 5 4 3 2 1 2 1 1 1 2 1 1 1 1 1 0 1 1 1 0 1 1 2 2 2 2 2 2 2 2 2 2 3 3 2 2 2 3
5 6 6 8 6 5 7 6 3 2 2 2 1 1 0 1 2 1 1 1 1 0 1 1 1 1 1 1 2 2 2 1 1 2 2 2 2 2 2 3 4 5 5 7
Wind_Direction
133 108 197 203 197 194 176 192 240 249 231 219 248 265 272 260 231 230 233 233 234 239 243 235 229 234 240 248 255 260 262 271 277 280 267 267 267 260 255 252 252 248 243 238
97 232 227 204 196 206 213 231 257 283 287 240 268 275 269 247 225 220 221 224 229 238 248 247 248 248 249 249 255 263 257 263 266 255 248 246 255 255 254 254 256 251 246 239
186 222 199 182 185 197 226 214 227 249 315 312 300 300 274 251 217 214 219 219 224 222 229 241 249 253 258 257 254 263 258 260 262 254 269 282 276 270 267 265 258 254 251 242
212 234 200 187 204 184 228 215 202 221 338 291 158 285 284 255 242 233 233 235 238 237 236 239 244 254 256 253 255 258 258 257 257 249 256 262 265 266 266 263 260 261 255 251
219 198 183 202 211 178 198 184 159 197 178 298 249 223 282 269 248 248 242 237 239 237 229 234 241 247 254 248 253 261 263 266 258 248 245 253 266 266 265 263 264 260 256 249
227 226 190 188 165 160 144 66 46 43 74 274 226 195 271 237 229 248 243 241 247 246 240 244 252 257 265 258 259 265 268 275 264 255 252 249 260 271 273 273 268 263 259 253
240 248 213 140 111 98 112 101 45 355 337 249 215 209 249 245 229 223 233 242 253 249 239 252 261 264 269 270 269 269 268 279 275 265 263 255 256 259 257 261 261 262 259 258
181 237 211 180 170 168 173 154 166 201 227 272 254 234 252 253 249 242 241 246 256 252 244 247 250 246 255 266 270 266 265 273 273 266 269 262 258 255 254 254 250 252 250 246
181 213 171 165 153 146 153 186 170 142 188 274 267 275 297 250 324 302 275 274 256 248 247 250 254 248 252 262 268 260 257 269 271 264 264 266 262 253 253 256 250 250 251 246
158 173 210 150 101 79 153 148 122 144 171 249 279 264 246 253 267 282 269 256 258 253 251 253 252 255 259 260 266 262 253 257 264 266 261 263 261 255 252 253 253 251 248 237
149 151 165 154 193 185 159 163 154 148 174 179 258 269 226 223 230 243 251 253 252 249 248 248 256 265 268 274 273 277 271 276 276 270 267 272 275 264 252 249 252 249 249 232
156 137 179 230 254 206 184 181 159 169 215 196 215 268 267 234 236 238 259 266 262 252 253 253 262 273 281 282 282 279 276 276 277 273 268 267 271 274 271 270 266 254 248 230
150 140 127 337 294 231 209 196 177 145 140 176 200 261 297 335 306 277 271 274 273 264 265 278 287 282 278 280 282 281 274 271 278 276 267 266 265 264 267 277 279 274 246 219
138 151 184 199 207 176 201 208 185 163 185 212 228 254 283 293 290 294 288 276 270 271 273 281 288 286 286 286 283 284 280 268 278 273 262 262 258 256 253 273 288 288 241 186
124 177 210 237 211 177 204 211 200 206 207 210 237 242 259 258 253 265 270 277 284 286 287 279 276 283 293 298 297 288 282 275 266 254 258 260 266 277 270 308 322 316 347 176
130 167 175 261 228 218 236 229 215 223 225 234 255 264 254 255 248 268 271 275 281 277 272 275 280 291 296 297 300 306 306 283 255 234 281 288 329 354 355 346 354 360 24 56
166 156 164 225 237 331 255 226 206 210 214 207 232 245 250 254 248 249 255 259 265 274 280 279 279 279 275 279 284 275 267 297 53 23 360 9 20 9 6 12 31 28 16 31
171 163 163 170 148 223 243 211 200 214 231 220 233 246 236 236 242 239 233 237 256 271 281 286 285 291 296 296 303 349 67 56 42 31 20 18 29 18 14 31 26 12 25 42
186 174 171 172 210 263 280 232 186 202 246 229 231 247 249 241 293 277 250 240 240 253 265 271 276 284 308 350 13 52 56 50 38 23 16 10 19 23 18 25 20 10 20 19
173 178 182 177 194 229 245 235 180 148 261 238 216 234 234 169 227 262 263 256 256 266 274 305 343 18 18 4 48 71 48 47 27 359 358 5 17 46 22 2 359 3 12 357
181 193 207 205 220 253 258 209 130 174 244 248 210 218 204 197 217 240 238 232 222 229 256 63 64 46 2 14 67 65 39 10 348 9 21 18 17 28 20 8 1 0 3 2
186 186 198 191 213 247 260 130 176 224 265 247 216 207 203 216 223 206 203 205 183 56 38 66 75 25 7 50 81 63 7 341 15 34 32 20 14 15 17 20 359 358 8 7
201 193 196 204 221 275 203 227 253 246 233 258 332 268 186 194 212 208 207 199 198 172 106 64 78 20 12 48 89 76 332 5 34 37 25 12 10 11 10 11 359 354 355 349
252 196 197 248 264 279 274 281 311 319 269 294 17 359 162 184 192 196 174 152 25 314 245 66 73 31 355 16 38 21 351 29 47 28 7 4 5 360 358 356 353 341 319 313
214 188 214 252 272 293 274 248 263 304 329 344 358 39 150 151 160 183 189 209 238 307 349 65 99 322 316 1 15 6 13 36 32 11 356 351 350 344 343 342 333 317 302 286
207 198 205 237 238 235 262 263 248 226 260 272 299 338 346 169 199 191 201 222 202 195 36 41 24 347 333 358 360 354 2 24 27 358 347 339 336 334 335 333 332 331 319 314
Height
1480 1485 1486 1483 1483 1482 1483 1485 1485 1482 1479 1481 1480 1475 1470 1468 1469 1468 1468 1468 1468 1468 1468 1468 1467 1467 1466 1465 1464 1462 1460 1459 1457 1455 1453 1451 1450 1449 1448 1448 1448 1448 1448 1449
1483 1484 1477 1478 1480 1481 1482 1483 1483 1481 1478 1479 1477 1472 1466 1463 1463 1462 1463 1463 1463 1463 1463 1463 1463 1462 1461 1460 1459 1457 1456 1454 1453 1451 1449 1447 1445 1444 1443 1443 1443 1443 1443 1443
1479 1476 1473 1476 1478 1480 1481 1482 1481 1481 1480 1478 1478 1471 1463 1458 1458 1458 1459 1459 1459 1459 1458 1458 1458 1457 1456 1455 1454 1453 1451 1450 1448 1446 1444 1442 1441 1439 1438 1437 1437 1437 1437 1437
1476 1472 1472 1474 1476 1477 1480 1477 1478 1479 1484 1485 1482 1481 1462 1458 1457 1456 1455 1455 1455 1455 1454 1454 1453 1452 1451 1451 1450 1449 1447 1445 1443 1441 1439 1438 1436 1434 1433 1432 1432 1432 1432 1431
1472 1470 1470 1472 1472 1473 1476 1475 1477 1479 1482 1486 1483 1485 1466 1459 1457 1454 1452 1451 1451 1450 1450 1450 1449 1448 1447 1446 1445 1444 1442 1440 1439 1437 1436 1434 1432 1430 1428 1428 1427 1427 1427 1427
1470 1468 1468 1468 1469 1470 1473 1477 1480 1485 1488 1487 1478 1482 1467 1460 1452 1449 1448 1447 1447 1447 1446 1446 1445 1445 1443 1442 1441 1440 1438 1436 1434 1433 1431 1430 1428 1426 1424 1423 1422 1422 1422 1422
1469 1467 1466 1466 1470 1472 1474 1483 1490 1488 1493 1483 1474 1475 1462 1449 1446 1445 1444 1443 1443 1443 1443 1442 1442 1441 1439 1438 1437 1436 1434 1432 1430 1429 1427 1426 1424 1422 1420 1419 1419 1418 1417 1417
1470 1470 1465 1464 1466 1470 1473 1477 1484 1483 1484 1479 1472 1470 1453 1444 1442 1441 1441 1440 1440 1440 1439 1439 1438 1437 1436 1435 1434 1432 1430 1429 1427 1425 1423 1422 1421 1419 1417 1416 1415 1414 1414 1413
1465 1466 1462 1462 1463 1465 1472 1476 1475 1484 1484 1481 1473 1463 1450 1441 1440 1440 1439 1438 1437 1437 1436 1436 1435 1434 1433 1432 1430 1429 1427 1425 1423 1422 1420 1418 1417 1415 1414 1413 1412 1411 1411 1410
1457 1465 1462 1462 1463 1464 1466 1470 1479 1483 1482 1476 1468 1463 1454 1443 1441 1439 1437 1435 1434 1434 1434 1433 1432 1431 1430 1429 1427 1426 1424 1422 1420 1418 1417 1415 1413 1412 1410 1409 1408 1408 1407 1407
1453 1463 1466 1464 1464 1464 1467 1469 1472 1480 1480 1477 1472 1457 1439 1438 1436 1436 1434 1433 1432 1431 1430 1430 1429 1428 1427 1426 1425 1423 1421 1419 1417 1416 1414 1412 1410 1409 1408 1406 1405 1405 1404 1404
1451 1460 1467 1464 1460 1459 1460 1462 1468 1473 1477 1478 1475 1457 1433 1434 1433 1432 1432 1430 1429 1428 1428 1427 1427 1425 1424 1423 1422 1420 1418 1417 1415 1413 1411 1410 1408 1407 1405 1404 1403 1403 1402 1402
1448 1457 1464 1462 1464 1462 1460 1459 1462 1467 1473 1479 1475 1453 1433 1432 1431 1431 1430 1429 1428 1427 1426 1425 1424 1423 1422 1420 1419 1417 1415 1414 1412 1410 1409 1407 1406 1404 1403 1402 1401 1401 1400 1400
1443 1450 1451 1449 1448 1455 1458 1457 1458 1463 1469 1470 1462 1446 1435 1432 1432 1430 1429 1428 1426 1425 1424 1423 1421 1420 1419 1418 1416 1414 1412 1411 1410 1408 1406 1405 1403 1403 1402 1401 1400 1399 1398 1398
1441 1448 1448 1446 1446 1449 1449 1450 1453 1455 1455 1456 1447 1443 1433 1431 1430 1429 1428 1426 1425 1424 1423 1421 1419 1418 1417 1415 1413 1412 1410 1409 1408 1406 1404 1403 1402 1401 1400 1400 1399 1398 1397 1396
1442 1447 1448 1447 1445 1446 1446 1444 1446 1446 1446 1446 1443 1437 1428 1428 1428 1427 1426 1425 1423 1421 1420 1419 1418 1416 1415 1413 1411 1410 1408 1407 1406 1404 1403 1401 1400 1399 1398 1398 1397 1397 1396 1395
1443 1445 1448 1448 1446 1444 1444 1435 1437 1439 1436 1437 1436 1428 1425 1426 1425 1424 1423 1423 1421 1419 1418 1417 1415 1414 1413 1411 1409 1408 1407 1405 1404 1403 1401 1400 1399 1398 1397 1397 1396 1395 1395 1394
1439 1442 1447 1449 1448 1446 1427 1422 1425 1427 1427 1427 1424 1421 1421 1421 1421 1421 1421 1420 1419 1418 1416 1415 1413 1412 1411 1410 1408 1407 1406 1404 1403 1401 1400 1399 1398 1397 1396 1396 1395 1394 1393 1392
1432 1438 1444 1446 1444 1435 1425 1421 1422 1425 1423 1419 1419 1417 1417 1418 1419 1419 1418 1417 1417 1416 1415 1414 1412 1411 1409 1408 1407 1406 1405 1403 1402 1400 1399 1398 1397 1396 1395 1394 1394 1393 1392 1391
1431 1433 1439 1440 1438 1430 1418 1415 1415 1420 1421 1413 1413 1413 1414 1417 1422 1417 1414 1414 1414 1413 1413 1412 1411 1410 1408 1407 1406 1405 1404 1403 1401 1400 1399 1398 1396 1395 1394 1393 1393 1392 1391 1389
1432 1432 1433 1434 1434 1424 1415 1413 1415 1423 1416 1409 1409 1409 1411 1413 1413 1412 1412 1412 1411 1411 1411 1410 1409 1408 1407 1406 1405 1404 1403 1402 1401 1400 1399 1397 1396 1395 1393 1392 1391 1390 1389 1388
1427 1428 1429 1429 1429 1422 1412 1413 1415 1413 1408 1408 1407 1407 1408 1409 1409 1410 1410 1410 1409 1409 1409 1409 1408 1407 1407 1406 1405 1403 1402 1402 1401 1399 1398 1396 1395 1394 1393 1391 1390 1389 1388 1386
1423 1422 1422 1421 1417 1412 1410 1410 1409 1409 1408 1408 1407 1407 1407 1407 1407 1408 1408 1408 1408 1408 1408 1407 1407 1407 1406 1405 1404 1403 1402 1401 1400 1398 1397 1396 1395 1393 1392 1391 1389 1387 1386 1384
1419 1417 1419 1418 1412 1409 1408 1408 1408 1408 1408 1408 1407 1407 1406 1406 1406 1406 1407 1407 1407 1407 1407 1407 1406 1406 1405 1404 1404 1403 1402 1400 1399 1397 1396 1395 1393 1392 1391 1389 1388 1386 1384 1383
1413 1415 1416 1414 1410 1408 1405 1406 1406 1406 1406 1406 1406 1406 1406 1405 1405 1405 1405 1406 1406 1406 1406 1405 1405 1404 1404 1403 1403 1402 1401 1399 1398 1396 1395 1393 1392 1390 1389 1387 1386 1385 1383 1382
1408 1409 1411 1408 1405 1406 1403 1403 1404 1404 1404 1405 1404 1404 1404 1404 1404 1404 1404 1404 1404 1404 1404 1404 1404 1403 1403 1402 1401 1401 1400 1398 1397 1395 1393 1392 1390 1389 1387 1385 1384 1383 1382 1380